Tracking 20712 objects as of 28-May-2020
HD Live streaming from Space Station
objects crossing your sky now

FENGYUN 1C DEB

Track FENGYUN 1C DEB now!
10-day predictions


NORAD ID: 31060
Int'l Code: 1999-025BFE
Perigee: 553.7 km
Apogee: 648.6 km
Inclination: 99.2 °
Period: 96.6 minutes
Semi major axis: 6972 km
RCS: 0.0121 m2 (small)
Launch date: May 10, 1999
Source: People's Republic of China (PRC)
Launch site: Taiyaun Space Center, China (TSC)

Note: This is SATELLITE DEBRIS
aabbcc
Your satellite tracking list
Your tracking list is empty




NASA's NSSDC Master Catalog

Two Line Element Set (TLE):
1 31060U 99025BFE 20145.84052561  .00002619  00000-0  25960-3 0  9991
2 31060  99.1742  18.4060 0068055 310.9908  48.5432 14.91252389707304
Source of the keplerian elements: AFSPC